Regional Weather Roundup
Issued by NWS

Home | Current Version | Previous Version | Text Only | Print | Product List | Glossary On
Versions: 1 2 3 4 5 6 7 8 9 10 11 12 13 14 15 16 17 18 19 20 21 22 23 24 25 26 27 28 29 30 31 32 33 34 35 36 37 38 39 40 41 42 43 44 45 46 47 48 49 50
000
ASPQ40 PGUM 220310
RWRPQ
WEATHER ROUNDUP FOR THE MARIANAS AND MICRONESIA
NATIONAL WEATHER SERVICE TIYAN GU
100 PM CHST SUN APR 22 2018

GUZ001>004-220400-
MARIANA ISLANDS-

CITY           SKY/WX    TMP DP  RH WIND       PRES   REMARKS
GUAM AIRPORT   MOSUNNY   90  70  51 E16       29.84F HX  95
ANDERSEN AFB   PTSUNNY   86  70  58 NE17G25   29.85F HX  90
ROTA AIRPORT   MOSUNNY   82  70  65 E14G21    29.85F
TINIAN AP      MOSUNNY   82  72  69 NE21      29.83F
SAIPAN AP      MOSUNNY   88  73  62 E18       29.84F HX  96

$$

PMZ161-220400-
REPUBLIC OF PALAU-

CITY           SKY/WX    TMP DP  RH WIND       PRES   REMARKS
KOROR AP       PTSUNNY   88  73  62 E13G20    29.79F HX  96
KOROR WSO      PTSUNNY   88  77  70 NE12      29.80F HX 100

$$

PMZ171>174-220400-
FEDERATED STATES OF MICRONESIA-

CITY           SKY/WX    TMP DP  RH WIND       PRES   REMARKS
YAP AIRPORT    PTSUNNY   88  73  62 E12       29.78F HX  96
CHUUK AP       MOSUNNY   86  75  70 NE12      29.72F HX  95
POHNPEI AP     NOT AVBL
POHNPEI WSO    CLOUDY    90  79  70 N6        29.73F HX 105
KOSRAE AP      CLOUDY    82  77  83 E8        29.69F HX  91

$$

PMZ181-220400-
REPUBLIC OF THE MARSHALL ISLANDS-

CITY           SKY/WX    TMP DP  RH WIND       PRES   REMARKS
KWAJALEIN AP   MOSUNNY   82  75  78 N3        29.74F
MAJURO AP      NOT AVBL
MAJURO WSO     PTSUNNY   88  77  70 SE6       29.71F HX 100

$$




USA.gov is the U.S. government's official web portal to all federal, state and local government web resources and services.